STARLINK-30502, 57973

Orbit data source: Space-Track

STARLINK-30502, 57973 is a payload satellite owned by SpaceX/Seattle (US) in LEO that was launched on Sat, 30 Sep 2023 UTC via an FALCON 9 launch vehicle from the Air Force Eastern Test Range (AFETR). Payload-class satellites include a variety of spacecraft equipped with specific instruments for various scientific and technological missions. These include communications satellites like Starlink; space stations such as the ISS; scientific satellites like the Hubble; Earth observation satellites from companies like Planet Labs, Umbra, and HawkEye 360; GPS; miniature CubeSats for education and research; and military/defense satellites.

Loading next visibility...
Identifier
57973, 2023-151K
Orbit
LEO
Country
Flag of USUS
Related business
Manufacturer
SpaceX/Seattle
Mission
Operational Commercial Communications
Bus & Motor
STARLINK V2M, Unknown motor
Mass
730 kg wet, ~700 kg dry
Launch date (UTC)
2023-09-30 (3 years ago)
Launch vehicle
FALCON 9
Launch site
Air Force Eastern Test Range (AFETR)
Object type
Payload
Rocket body
Debris
Shape & HBR
Box + 2 Pan, 17.7 m
Radar Cross Section
33.884 m², Large (>1 m²)

Expand to show TLE details & history
Last TLE update: 11 hours ago

TLE from 11 hours ago
0 STARLINK-30502
1 57973U 23151K   26129.99757734 -.00003982  00000-0 -13529-3 0  9991
2 57973  43.0063 349.6764 0001849 285.0874  74.9773 15.27566387145146
Epoch: 2026-05-09T23:56Z
TLE epoch observation values (Epoch: 2026-05-09T23:56:30.682Z)
Latitude
-0.00001°
Longitude
122.74157°
Altitude
482.537 km
Speed
7.626 km/s
True Right ascension
23h 18m 42s
True Declination
0° 00' 00"
Sunlit
Object was in daylight at epoch
Visualization orbit readout
Latitude
Unknown
Longitude
Unknown
Altitude
Unknown
Speed
Unknown
Apparent Right ascension
Unknown
Apparent Declination
Unknown
Sunlit
N/A
Visualization observer readout
Local Sidereal Time
18:56:55
Azimuth
Unknown
Elevation
Unknown
Doppler factor
Unknown
Orbital elements
Apogee altitude
486.303 km
Perigee altitude
483.765 km
Semi-major axis
6,863.171 km
Eccentricity
0.00018
Inclination
43.0063°
RAAN
349.6764°
Arg. of periapsis
285.0874°
True anomaly
74.99777°
Mean anomaly
74.9773°
Eccentric anomaly
74.98753°
Mean motion
3.8173 °/min
Orbital period
94.31 mins
BSTAR
-0.00013529
Loading maneuver chart data...
Computing Atmospheric mass density...
Loading historical data...
Loading historical data...
Loading historical data...
Loading historical data...
Loading historical data...
Loading historical data...
Loading historical data...

Documentation

Showing up to 5 results
|